| time (UTC) | temp C | wind direction | speed KPH | gust KPH | rain 1hr cm | rain 24hr cm | rain mn cm | humidity % | barometer mb |
| 20260506103000 | 12 | 350 | 3.2 | 6.4 | 0.00 | 0.00 | 0.15 | 88 | 1006.3 |
| 20260506102000 | 12 | 347 | 3.2 | 9.7 | 0.00 | 0.00 | 0.15 | 88 | 1006.2 |
| 20260506101004 | 12 | 334 | 3.2 | 9.7 | 0.00 | 0.00 | 0.15 | 89 | 1006.2 |
| 20260506100001 | 12 | 348 | 3.2 | 6.4 | 0.00 | 0.00 | 0.15 | 89 | 1006.2 |
| 20260506095004 | 12 | 355 | 3.2 | 9.7 | 0.00 | 0.00 | 0.15 | 89 | 1006.1 |
| 20260506094000 | 12 | 341 | 4.8 | 9.7 | 0.00 | 0.00 | 0.15 | 90 | 1006.0 |
| 20260506093004 | 12 | 341 | 3.2 | 12.9 | 0.00 | 0.00 | 0.15 | 90 | 1005.9 |
| 20260506092004 | 12 | 339 | 4.8 | 9.7 | 0.00 | 0.00 | 0.15 | 90 | 1005.9 |
| 20260506091000 | 12 | 340 | 3.2 | 8.0 | 0.00 | 0.00 | 0.15 | 90 | 1005.9 |
| 20260506090000 | 12 | 340 | 3.2 | 6.4 | 0.00 | 0.00 | 0.15 | 90 | 1005.9 |
| 20260506085005 | 12 | 334 | 3.2 | 8.0 | 0.00 | 0.00 | 0.15 | 90 | 1005.8 |
| 20260506084000 | 12 | 337 | 3.2 | 9.7 | 0.00 | 0.00 | 0.15 | 90 | 1005.7 |
| 20260506083005 | 12 | 349 | 4.8 | 6.4 | 0.00 | 0.00 | 0.15 | 90 | 1005.6 |
| 20260506082000 | 12 | 352 | 3.2 | 6.4 | 0.00 | 0.00 | 0.15 | 90 | 1005.7 |
| 20260506081000 | 12 | 1 | 3.2 | 8.0 | 0.00 | 0.00 | 0.15 | 90 | 1005.7 |
| 20260506073004 | 12 | 352 | 3.2 | 6.4 | 0.00 | 0.00 | 0.15 | 91 | 1005.7 |
| 20260506072001 | 12 | 356 | 1.6 | 4.8 | 0.00 | 0.00 | 0.15 | 91 | 1005.6 |
| 20260506071004 | 12 | 338 | 1.6 | 4.8 | 0.00 | 0.00 | 0.15 | 91 | 1005.6 |
| 20260506062005 | 11 | 23 | 1.6 | 3.2 | 0.00 | 0.00 | 0.15 | 92 | 1005.4 |
| 20260506061001 | 11 | 45 | 1.6 | 3.2 | 0.00 | 0.00 | 0.15 | 92 | 1005.4 |
| 20260506051004 | 11 | 23 | 1.6 | 1.6 | 0.05 | 0.00 | 0.15 | 92 | 1005.5 |
| 20260506045005 | 11 | 206 | 1.6 | 1.6 | 0.05 | 0.00 | 0.13 | 92 | 1005.7 |
| 20260506044004 | 11 | 322 | 1.6 | 3.2 | 0.05 | 0.00 | 0.10 | 92 | 1005.7 |
| 20260506043000 | 11 | 16 | 1.6 | 3.2 | 0.05 | 0.00 | 0.10 | 92 | 1005.6 |
| 20260506042005 | 11 | 90 | 1.6 | 1.6 | 0.03 | 0.00 | 0.10 | 92 | 1005.7 |
| 20260506041004 | 11 | 90 | 1.6 | 1.6 | 0.00 | 0.00 | 0.08 | 92 | 1005.7 |
| 20260506040004 | 11 | 124 | 1.6 | 3.2 | 0.00 | 0.00 | 0.08 | 91 | 1005.7 |
| 20260506035001 | 11 | 329 | 1.6 | 3.2 | 0.00 | 0.00 | 0.08 | 91 | 1005.7 |
| 20260506034005 | 11 | 355 | 1.6 | 3.2 | 0.00 | 0.00 | 0.08 | 92 | 1005.7 |
| 20260506033005 | 11 | 17 | 1.6 | 6.4 | 0.00 | 0.00 | 0.08 | 92 | 1005.6 |
| 20260506032000 | 11 | 358 | 1.6 | 4.8 | 0.03 | 0.00 | 0.08 | 91 | 1005.6 |
| 20260506031004 | 11 | 343 | 1.6 | 4.8 | 0.03 | 0.00 | 0.08 | 91 | 1005.7 |
| 20260506030000 | 11 | 341 | 1.6 | 4.8 | 0.03 | 0.00 | 0.08 | 91 | 1005.9 |
| 20260506025004 | 11 | 341 | 1.6 | 4.8 | 0.03 | 0.00 | 0.08 | 91 | 1005.9 |
| 20260506024000 | 11 | 339 | 3.2 | 6.4 | 0.03 | 0.00 | 0.08 | 90 | 1006.0 |
| 20260506023004 | 11 | 354 | 1.6 | 4.8 | 0.03 | 0.00 | 0.05 | 91 | 1006.0 |
| 20260506022000 | 11 | 354 | 1.6 | 4.8 | 0.03 | 0.00 | 0.05 | 91 | 1006.0 |
| 20260506021004 | 11 | 329 | 1.6 | 3.2 | 0.03 | 0.00 | 0.05 | 91 | 1006.2 |
| 20260506020005 | 11 | 338 | 1.6 | 3.2 | 0.03 | 0.00 | 0.05 | 90 | 1006.2 |
| 20260506015000 | 11 | 338 | 1.6 | 3.2 | 0.03 | 0.00 | 0.05 | 90 | 1006.2 |
| 20260506014000 | 12 | 330 | 1.6 | 3.2 | 0.03 | 0.00 | 0.05 | 91 | 1006.4 |
| 20260506013001 | 12 | 317 | 1.6 | 3.2 | 0.00 | 0.00 | 0.03 | 91 | 1006.5 |
| 20260506012004 | 12 | 317 | 1.6 | 3.2 | 0.00 | 0.00 | 0.03 | 91 | 1006.5 |
| 20260506011001 | 12 | 320 | 1.6 | 3.2 | 0.00 | 0.00 | 0.03 | 90 | 1006.5 |
| 20260506010004 | 12 | 317 | 1.6 | 3.2 | 0.00 | 0.00 | 0.03 | 91 | 1006.5 |
| 20260506005000 | 12 | 317 | 1.6 | 3.2 | 0.00 | 0.00 | 0.03 | 91 | 1006.5 |
| 20260506004005 | 12 | 327 | 1.6 | 3.2 | 0.00 | 0.00 | 0.03 | 90 | 1006.6 |
| 20260506003000 | 12 | 340 | 1.6 | 4.8 | 0.00 | 0.00 | 0.03 | 90 | 1006.6 |
| 20260506002001 | 12 | 340 | 1.6 | 4.8 | 0.03 | 0.00 | 0.03 | 90 | 1006.6 |
| 20260506001000 | 12 | 342 | 1.6 | 3.2 | 0.03 | 0.00 | 0.03 | 90 | 1006.7 |
| 20260506000004 | 12 | 332 | 1.6 | 4.8 | 0.03 | 0.00 | 0.03 | 90 | 1006.9 |
| 20260505235004 | 12 | 332 | 1.6 | 4.8 | 0.03 | 0.00 | 0.03 | 90 | 1006.9 |
| 20260505234000 | 12 | 321 | 1.6 | 4.8 | 0.03 | 0.00 | 0.03 | 90 | 1007.0 |
| 20260505233001 | 12 | 282 | 3.2 | 6.4 | 0.00 | 0.00 | 0.00 | 90 | 1007.1 |
| 20260505232004 | 12 | 282 | 3.2 | 6.4 | 0.00 | 0.00 | 0.00 | 90 | 1007.1 |
| 20260505231001 | 12 | 270 | 1.6 | 3.2 | 0.00 | 0.00 | 0.00 | 90 | 1007.1 |
| 20260505230005 | 12 | 291 | 3.2 | 6.4 | 0.00 | 0.00 | 0.00 | 89 | 1007.2 |
| 20260505225004 | 12 | 291 | 3.2 | 6.4 | 0.00 | 0.00 | 0.00 | 89 | 1007.2 |
| 20260505224004 | 12 | 297 | 3.2 | 8.0 | 0.00 | 0.00 | 0.00 | 90 | 1007.1 |
| 20260505223000 | 13 | 308 | 1.6 | 6.4 | 0.00 | 0.00 | 0.00 | 89 | 1007.2 |
| 20260505222004 | 13 | 308 | 1.6 | 6.4 | 0.00 | 0.00 | 0.00 | 89 | 1007.2 |
| 20260505221004 | 13 | 230 | 3.2 | 9.7 | 0.00 | 0.00 | 0.00 | 89 | 1007.1 |
| 20260505220000 | 13 | 348 | 1.6 | 3.2 | 0.00 | 0.00 | 1.09 | 90 | 1007.2 |
| 20260505215001 | 13 | 348 | 1.6 | 3.2 | 0.00 | 0.00 | 1.09 | 90 | 1007.2 |
| 20260505214004 | 13 | 14 | 3.2 | 6.4 | 0.05 | 0.00 | 1.09 | 90 | 1007.4 |
| 20260505213004 | 13 | 14 | 3.2 | 6.4 | 0.05 | 0.00 | 1.09 | 90 | 1007.4 |
| 20260505212000 | 13 | 14 | 3.2 | 6.4 | 0.05 | 0.00 | 1.09 | 90 | 1007.4 |
| 20260505211005 | 13 | 14 | 3.2 | 6.4 | 0.05 | 0.00 | 1.09 | 90 | 1007.4 |
| 20260505210004 | 13 | 14 | 3.2 | 6.4 | 0.05 | 0.00 | 1.09 | 90 | 1007.4 |
| 20260505205004 | 13 | 48 | 1.6 | 6.4 | 0.05 | 0.00 | 1.09 | 90 | 1007.5 |
| 20260505204000 | 13 | 270 | 3.2 | 8.0 | 0.05 | 0.00 | 1.09 | 90 | 1007.6 |
| 20260505203004 | 13 | 270 | 3.2 | 8.0 | 0.05 | 0.00 | 1.09 | 90 | 1007.6 |
| 20260505202000 | 13 | 270 | 1.6 | 3.2 | 0.08 | 0.00 | 1.07 | 90 | 1007.5 |
| 20260505201001 | 13 | 245 | 3.2 | 6.4 | 0.05 | 0.00 | 1.04 | 89 | 1007.5 |
| 20260505200004 | 13 | 194 | 3.2 | 4.8 | 0.05 | 0.00 | 1.04 | 89 | 1007.4 |
| 20260505195001 | 13 | 351 | 1.6 | 6.4 | 0.05 | 0.00 | 1.02 | 89 | 1007.3 |
| 20260505194004 | 14 | 188 | 1.6 | 3.2 | 0.08 | 0.00 | 1.02 | 90 | 1007.2 |
| 20260505193004 | 14 | 316 | 3.2 | 9.7 | 0.08 | 0.00 | 1.02 | 89 | 1007.2 |
| 20260505192004 | 14 | 312 | 1.6 | 6.4 | 0.05 | 0.00 | 0.99 | 89 | 1007.2 |
| 20260505191000 | 14 | 355 | 1.6 | 3.2 | 0.05 | 0.00 | 0.99 | 89 | 1007.2 |
| 20260505190004 | 14 | 9 | 1.6 | 6.4 | 0.05 | 0.00 | 0.97 | 89 | 1007.2 |
| 20260505185000 | 15 | 330 | 3.2 | 6.4 | 0.08 | 0.00 | 0.97 | 89 | 1007.2 |
| 20260505184004 | 15 | 338 | 1.6 | 6.4 | 0.08 | 0.00 | 0.94 | 90 | 1007.1 |
| 20260505183000 | 15 | 338 | 1.6 | 3.2 | 0.08 | 0.00 | 0.94 | 91 | 1007.1 |
| 20260505182001 | 15 | 315 | 1.6 | 3.2 | 0.10 | 0.00 | 0.94 | 90 | 1007.2 |
| 20260505181004 | 15 | 166 | 1.6 | 3.2 | 0.10 | 0.00 | 0.91 | 90 | 1007.1 |
| 20260505180000 | 15 | 155 | 1.6 | 1.6 | 0.10 | 0.00 | 0.91 | 90 | 1007.2 |
| 20260505175000 | 15 | 201 | 1.6 | 3.2 | 0.10 | 0.00 | 0.89 | 90 | 1007.2 |
| 20260505174000 | 15 | 270 | 1.6 | 1.6 | 0.08 | 0.00 | 0.86 | 90 | 1007.2 |
| 20260505173000 | 15 | 220 | 1.6 | 3.2 | 0.08 | 0.00 | 0.86 | 90 | 1007.2 |
| 20260505172000 | 15 | 270 | 1.6 | 3.2 | 0.05 | 0.00 | 0.84 | 89 | 1007.3 |
| 20260505171000 | 15 | 270 | 1.6 | 3.2 | 0.05 | 0.00 | 0.81 | 89 | 1007.2 |
| 20260505170000 | 15 | 301 | 3.2 | 6.4 | 0.05 | 0.00 | 0.81 | 89 | 1007.3 |
| 20260505165004 | 15 | 300 | 3.2 | 6.4 | 0.05 | 0.00 | 0.79 | 89 | 1007.3 |
| 20260505164005 | 15 | 298 | 3.2 | 8.0 | 0.08 | 0.00 | 0.79 | 89 | 1007.4 |
| 20260505163004 | 15 | 302 | 3.2 | 6.4 | 0.08 | 0.00 | 0.79 | 89 | 1007.4 |
| 20260505162000 | 15 | 233 | 1.6 | 3.2 | 0.10 | 0.00 | 0.79 | 90 | 1007.4 |
| 20260505161004 | 15 | 270 | 3.2 | 6.4 | 0.13 | 0.00 | 0.76 | 89 | 1007.5 |
| 20260505153005 | 16 | 255 | 3.2 | 11.3 | 0.66 | 0.00 | 0.71 | 88 | 1007.6 |
| 20260505152000 | 16 | 144 | 3.2 | 20.9 | 0.64 | 0.00 | 0.69 | 87 | 1007.6 |
| 20260505151004 | 16 | 175 | 4.8 | 12.9 | 0.33 | 0.00 | 0.36 | 83 | 1007.8 |
| 20260505125004 | 17 | 3 | 3.2 | 9.7 | 0.00 | 0.00 | 0.03 | 77 | 1008.0 |
| 20260505124001 | 17 | 21 | 3.2 | 6.4 | 0.00 | 0.00 | 0.03 | 77 | 1008.1 |
| 20260505123004 | 17 | 12 | 3.2 | 9.7 | 0.00 | 0.00 | 0.03 | 78 | 1008.2 |
| 20260505122004 | 17 | 2 | 3.2 | 9.7 | 0.00 | 0.00 | 0.03 | 78 | 1008.2 |
| 20260505121004 | 17 | 8 | 3.2 | 11.3 | 0.00 | 0.00 | 0.03 | 80 | 1008.3 |
| 20260505120005 | 17 | 12 | 3.2 | 9.7 | 0.00 | 0.00 | 0.03 | 79 | 1008.4 |
| 20260505115000 | 17 | 14 | 3.2 | 9.7 | 0.00 | 0.00 | 0.03 | 79 | 1008.4 |
| 20260505114000 | 17 | 14 | 3.2 | 11.3 | 0.00 | 0.00 | 0.03 | 79 | 1008.5 |
| 20260505113005 | 17 | 3 | 3.2 | 9.7 | 0.00 | 0.00 | 0.03 | 79 | 1008.6 |
| 20260505112004 | 17 | 20 | 3.2 | 6.4 | 0.00 | 0.00 | 0.03 | 78 | 1008.7 |
| 20260505111001 | 17 | 10 | 3.2 | 9.7 | 0.00 | 0.00 | 0.03 | 76 | 1008.7 |